Location: Newark
(25.6108°S, 54.5803°W)
Time: 21:24:44
(UTC+00:00)

Courier 1B - Pass Details

Date: 29 October 2020
Orbit: 962 x 1209 km, 28.3° (Epoch: 24 November)

Event Time Altitude Azimuth Distance (km) Brightness Sun altitude
Rises 23:16:47 0° 320° (NW) 3,818 10.8 -18.5°
Reaches altitude 10° 23:19:45 10° 329° (NNW) 2,907 10.0 -19.1°
Maximum altitude 23:25:58 32° 29° (NNE) 1,834 8.5 -20.3°
Enters shadow 23:26:44 31° 41° (NE) 1,864 8.4 -20.5°
Drops below altitude 10° 23:32:29 10° 89° (E) 3,075 - -21.6°
Sets 23:35:43 0° 98° (E) 4,070 - -22.3°
